Weather History for PAPG - September, 2014

Change the Weather History Date:

Tuesday, September 2, 2014

  Actual Average Record
Temperature  
Mean Temperature 54 °F -  
Max Temperature 59 °F 55 °F 73 °F (1993)
Min Temperature 48 °F 45 °F 42 °F (1985)
Degree Days  
Heating Degree Days 12    
Growing Degree Days 4 (Base 50)    
Moisture  
Dew Point 48 °F    
Average Humidity 84    
Maximum Humidity 94    
Minimum Humidity 63    
Precipitation  
Precipitation 0.00 in - - ()
Sea Level Pressure  
Sea Level Pressure 30.01 in    
Wind  
Wind Speed 3 mph (ENE)    
Max Wind Speed 7 mph    
Max Gust Speed -    
Visibility 8 miles    
Events      
Averages and records for this station are not official NWS values.
T = Trace of Precipitation, MM = Missing Value Source: NWS Daily Summary

Daily Weather History Graph

Daily Weather History Graph

Search for Another Location

Airport or City:

Trip Planner

Search our weather history database for the weather conditions in past years. The results will help you decide how hot, cold, wet, or windy it might be!

Date:

Astronomy

Sep. 02, 2014 Rise Set
Actual Time 5:56 AM AKDT 7:44 PM AKDT
Civil Twilight 5:16 AM AKDT 8:24 PM AKDT
Nautical Twilight 4:25 AM AKDT 9:14 PM AKDT
Astronomical Twilight 3:26 AM AKDT 10:13 PM AKDT
Moon 3:12 PM AKDT (9/2) 11:21 PM AKDT (9/2)
Length of Visible Light 15h 08m
Length of Day
13h 47m
First Quarter, 54% of the Moon is Illuminated
Sep 2
First Quarter
Sep 8
Full
Sep 15
Last Quarter
Sep 23
New
Oct 1
First Quarter

Hourly Weather History & Observations

Time (AKDT) Temp. Dew Point Humidity Pressure Visibility Wind Dir Wind Speed Gust Speed Precip Events Conditions
12:16 AM 51.8 °F 48.2 °F 88% 29.91 in 10.0 mi SSW 4.6 mph - N/A   Overcast
12:56 AM 51.8 °F 48.2 °F 88% 29.92 in 10.0 mi Calm Calm - N/A   Overcast
1:16 AM 51.8 °F 48.2 °F 88% 29.92 in 10.0 mi WSW 4.6 mph - N/A   Overcast
1:36 AM 51.8 °F 48.2 °F 88% 29.93 in 10.0 mi West 3.5 mph - N/A   Overcast
1:56 AM 51.8 °F 48.2 °F 88% 29.94 in 2.5 mi Calm Calm - N/A   Overcast
2:16 AM 51.8 °F 48.2 °F 88% 29.94 in 10.0 mi Calm Calm - N/A   Overcast
2:36 AM 51.8 °F 48.2 °F 88% 29.95 in 10.0 mi Calm Calm - N/A   Overcast
2:56 AM 51.8 °F 48.2 °F 88% 29.95 in 10.0 mi WSW 3.5 mph - N/A   Overcast
3:16 AM 50.0 °F 48.2 °F 94% 29.96 in 10.0 mi WSW 5.8 mph - N/A   Overcast
3:36 AM 50.0 °F 46.4 °F 87% 29.96 in 10.0 mi West 3.5 mph - N/A   Overcast
3:56 AM 50.0 °F 46.4 °F 87% 29.96 in 10.0 mi West 4.6 mph - N/A   Overcast
4:16 AM 50.0 °F 46.4 °F 87% 29.97 in 10.0 mi West 3.5 mph - N/A   Overcast
4:36 AM 50.0 °F 46.4 °F 87% 29.97 in 10.0 mi Calm Calm - N/A   Overcast
4:56 AM 48.2 °F 46.4 °F 93% 29.97 in 5.0 mi Calm Calm - N/A   Overcast
5:16 AM 48.2 °F 46.4 °F 93% 29.97 in 1.2 mi Calm Calm - N/A   Overcast
5:56 AM 48.2 °F 46.4 °F 93% 29.98 in 1.0 mi Calm Calm - N/A   Overcast
6:36 AM 48.2 °F 46.4 °F 93% 29.99 in 1.0 mi Calm Calm - N/A   Overcast
7:16 AM 48.2 °F 46.4 °F 93% 30.00 in 1.5 mi Calm Calm - N/A   Overcast
7:36 AM 50.0 °F 46.4 °F 87% 30.00 in 2.0 mi Calm Calm - N/A   Mostly Cloudy
7:56 AM 50.0 °F 48.2 °F 94% 30.01 in 1.5 mi NE 3.5 mph - N/A   Overcast
8:16 AM 50.0 °F 46.4 °F 87% 30.01 in 1.5 mi Calm Calm - N/A   Overcast
8:56 AM 50.0 °F 46.4 °F 87% 30.01 in 2.5 mi East 3.5 mph - N/A   Overcast
9:16 AM 51.8 °F 48.2 °F 88% 30.02 in 2.5 mi ENE 4.6 mph - N/A   Overcast
9:36 AM 50.0 °F 46.4 °F 87% 30.02 in 2.5 mi NE 6.9 mph - N/A   Overcast
9:54 AM 51.8 °F 46.4 °F 82% 30.02 in 4.0 mi ENE 3.5 mph - N/A   Overcast
10:16 AM 51.8 °F 48.2 °F 88% 30.03 in 4.0 mi ENE 4.6 mph - N/A   Overcast
10:36 AM 53.6 °F 48.2 °F 82% 30.03 in 7.0 mi ENE 5.8 mph - N/A   Mostly Cloudy
10:56 AM 51.8 °F 48.2 °F 88% 30.03 in 5.0 mi NE 4.6 mph - N/A   Overcast
11:16 AM 51.8 °F 48.2 °F 88% 30.04 in 5.0 mi ENE 6.9 mph - N/A   Overcast
11:36 AM 51.8 °F 48.2 °F 88% 30.04 in 5.0 mi NE 5.8 mph - N/A   Overcast
11:56 AM 51.8 °F 48.2 °F 88% 30.04 in 10.0 mi ENE 5.8 mph - N/A   Overcast
12:16 PM 51.8 °F 48.2 °F 88% 30.05 in 10.0 mi NE 5.8 mph - N/A   Overcast
12:36 PM 53.6 °F 48.2 °F 82% 30.05 in 10.0 mi ENE 4.6 mph - N/A   Overcast
12:56 PM 55.4 °F 50.0 °F 82% 30.05 in 10.0 mi ENE 4.6 mph - N/A   Mostly Cloudy
1:16 PM 55.4 °F 48.2 °F 77% 30.05 in 10.0 mi NE 5.8 mph - N/A   Mostly Cloudy
1:36 PM 55.4 °F 48.2 °F 77% 30.05 in 10.0 mi NNE 5.8 mph - N/A   Mostly Cloudy
1:56 PM 57.2 °F 50.0 °F 77% 30.05 in 10.0 mi ENE 5.8 mph - N/A   Partly Cloudy
2:56 PM 55.4 °F 48.2 °F 77% 30.05 in 10.0 mi NNE 6.9 mph - N/A   Scattered Clouds
3:16 PM 57.2 °F 48.2 °F 72% 30.05 in 10.0 mi ENE 6.9 mph - N/A   Scattered Clouds
3:36 PM 59.0 °F 48.2 °F 67% 30.05 in 10.0 mi ENE 4.6 mph - N/A   Scattered Clouds
3:56 PM 59.0 °F 46.4 °F 63% 30.04 in 10.0 mi NE 6.9 mph - N/A   Scattered Clouds
4:56 PM 59.0 °F 46.4 °F 63% 30.04 in 10.0 mi NE 4.6 mph - N/A   Scattered Clouds
5:16 PM 59.0 °F 48.2 °F 67% 30.04 in 10.0 mi ENE 4.6 mph - N/A   Scattered Clouds
5:56 PM 59.0 °F 48.2 °F 67% 30.03 in 10.0 mi NE 3.5 mph - N/A   Scattered Clouds
6:16 PM 59.0 °F 46.4 °F 63% 30.03 in 10.0 mi ENE 3.5 mph - N/A   Scattered Clouds
6:36 PM 57.2 °F 48.2 °F 72% 30.03 in 10.0 mi ESE 4.6 mph - N/A   Scattered Clouds
6:56 PM 55.4 °F 48.2 °F 77% 30.03 in 10.0 mi ESE 3.5 mph - N/A   Partly Cloudy
7:36 PM 51.8 °F 48.2 °F 88% 30.03 in 10.0 mi South 3.5 mph - N/A   Partly Cloudy
7:56 PM 51.8 °F 46.4 °F 82% 30.04 in 10.0 mi South 3.5 mph - N/A   Partly Cloudy
8:16 PM 50.0 °F 46.4 °F 87% 30.04 in 10.0 mi South 4.6 mph - N/A   Partly Cloudy
8:56 PM 51.8 °F 46.4 °F 82% 30.04 in 10.0 mi SSW 4.6 mph - N/A   Mostly Cloudy
9:16 PM 51.8 °F 46.4 °F 82% 30.04 in 10.0 mi Calm Calm - N/A   Mostly Cloudy
9:36 PM 51.8 °F 46.4 °F 82% 30.05 in 10.0 mi Calm Calm - N/A   Mostly Cloudy
9:56 PM 51.8 °F 46.4 °F 82% 30.05 in 10.0 mi Calm Calm - N/A   Overcast
10:16 PM 51.8 °F 48.2 °F 88% 30.05 in 10.0 mi Calm Calm - N/A   Overcast
10:36 PM 51.8 °F 48.2 °F 88% 30.05 in 10.0 mi Calm Calm - N/A   Overcast
10:56 PM 51.8 °F 48.2 °F 88% 30.05 in 10.0 mi Calm Calm - N/A   Overcast
11:36 PM 51.8 °F 48.2 °F 88% 30.06 in 10.0 mi Calm Calm - N/A   Overcast
11:56 PM 51.8 °F 46.4 °F 82% 30.06 in 10.0 mi West 4.6 mph - N/A   Overcast